This is the latest recevied weather packets stored in our database for station/object KC0AFB. If no packets are shown the sender has not sent any weather packets the latest 1 day(s).
| Time | Temp. | Humidity | Pressure | Rain* | Wind** | Luminosity | Snow |
|---|---|---|---|---|---|---|---|
| 1778013773 | 5.56° C | 48% | 1015.2 hPa | 0 mm | 4.02 m/s, 340° | 230 W/m² | - |
| 1778013470 | 5.56° C | 48% | 1015.1 hPa | 0 mm | 5.36 m/s, 314° | 217 W/m² | - |
| 1778013167 | 5.56° C | 49% | 1014.9 hPa | 0 mm | 4.92 m/s, 319° | 265 W/m² | - |
| 1778012863 | 6.11° C | 46% | 1014.9 hPa | 0 mm | 4.92 m/s, 327° | 288 W/m² | - |
| 1778012559 | 5.56° C | 47% | 1015 hPa | 0 mm | 2.68 m/s, 314° | 290 W/m² | - |
| 1778012256 | 6.11° C | 47% | 1014.9 hPa | 0 mm | 5.81 m/s, 281° | 301 W/m² | - |
| 1778011954 | 6.11° C | 46% | 1014.9 hPa | 0 mm | 4.92 m/s, 305° | 337 W/m² | - |
| 1778011652 | 6.11° C | 47% | 1014.6 hPa | 0 mm | 3.13 m/s, 309° | 510 W/m² | - |
| 1778011349 | 6.11° C | 46% | 1014.8 hPa | 0 mm | 5.36 m/s, 305° | 367 W/m² | - |
| 1778011044 | 6.67° C | 46% | 1014.6 hPa | 0 mm | 6.26 m/s, 297° | 563 W/m² | - |
| 1778010742 | 6.67° C | 46% | 1014.6 hPa | 0 mm | 5.36 m/s, 304° | 530 W/m² | - |
| 1778010439 | 6.11° C | 48% | 1014.6 hPa | 0 mm | 2.68 m/s, 290° | 408 W/m² | - |
| 1778010135 | 6.11° C | 47% | 1015 hPa | 0 mm | 4.02 m/s, 11° | 336 W/m² | - |
| 1778009831 | 5.56° C | 46% | 1014.8 hPa | 0 mm | 5.81 m/s, 303° | 345 W/m² | - |
| 1778009528 | 5.56° C | 48% | 1014.9 hPa | 0 mm | 3.58 m/s, 348° | 314 W/m² | - |
| 1778009227 | 5.56° C | 47% | 1014.9 hPa | 0 mm | 4.47 m/s, 309° | 304 W/m² | - |
| 1778008923 | 5.56° C | 48% | 1014.8 hPa | 0 mm | 4.47 m/s, 326° | 273 W/m² | - |
| 1778008621 | 5.56° C | 47% | 1014.5 hPa | 0 mm | 3.58 m/s, 309° | 298 W/m² | - |
| 1778008319 | 5.56° C | 47% | 1014.8 hPa | 0 mm | 4.47 m/s, 336° | 272 W/m² | - |
| 1778008015 | 5.56° C | 46% | 1014.5 hPa | 0 mm | 4.92 m/s, 330° | 328 W/m² | - |
| 1778007710 | 5.56° C | 47% | 1014.5 hPa | 0 mm | 4.92 m/s, 325° | 306 W/m² | - |
| 1778007407 | 5.56° C | 46% | 1014.5 hPa | 0 mm | 4.92 m/s, 316° | 277 W/m² | - |
| 1778007103 | 5.56° C | 45% | 1014.6 hPa | 0 mm | 4.92 m/s, 348° | 323 W/m² | - |
| 1778006800 | 5.56° C | 46% | 1014.4 hPa | 0 mm | 3.58 m/s, 319° | 294 W/m² | - |
| 1778006497 | 6.11° C | 45% | 1014.6 hPa | 0 mm | 6.26 m/s, 334° | 349 W/m² | - |
* Rain latest hour (hover to see other rain measurements)
** Current wind speed in m/s (hover to see current wind gust speed)